Wind_Speed
21 21 21 21 22 23 24 24 25 23 23 23 25 26 25 25 26 26 26 26 26 27 28 28 27 27 27 28 28 29 29 30 31 31 31 32 32 32 33 33 34 35 36 37
21 21 22 22 21 22 23 24 24 24 23 23 24 25 25 25 25 25 25 25 26 26 26 27 27 27 27 28 28 28 29 29 29 29 30 30 31 32 33 33 33 34 35 35
22 22 23 22 21 22 22 23 23 24 22 23 23 24 24 24 24 24 24 25 25 25 26 26 26 27 27 28 28 28 29 29 29 30 30 31 32 32 32 33 33 33 33 34
23 23 23 22 21 21 22 21 23 23 23 23 23 23 23 24 23 23 24 24 24 24 25 25 25 26 26 27 28 28 29 30 30 30 30 31 31 31 31 32 32 32 32 32
23 24 23 21 21 22 22 21 22 23 22 23 22 22 22 22 23 24 24 24 24 24 25 25 25 26 26 27 27 28 29 29 29 30 31 31 30 30 30 30 30 29 30 31
23 25 24 22 22 22 23 22 22 22 23 22 23 22 22 22 23 24 24 24 24 24 24 25 25 25 25 25 26 27 28 29 29 29 30 30 30 30 30 30 29 29 30 31
23 24 23 22 22 22 23 22 22 22 22 22 22 22 22 23 23 24 25 24 24 23 23 23 23 24 24 25 25 26 27 28 28 28 29 29 29 29 29 29 28 28 28 29
23 23 23 22 22 21 22 22 22 22 22 22 21 21 22 23 24 24 24 24 24 23 22 23 23 24 24 25 25 26 26 27 26 26 27 27 28 27 27 27 27 27 27 27
23 23 23 22 22 22 22 22 22 22 23 22 22 22 22 23 24 23 24 24 24 23 23 23 23 24 24 24 25 25 26 26 26 26 26 25 26 25 25 25 25 24 25 25
24 23 23 22 22 22 22 22 22 22 23 22 22 22 23 23 23 23 24 24 24 24 24 24 24 24 24 24 24 25 25 25 24 24 24 24 23 23 23 22 22 22 22 21
24 23 23 22 22 23 23 22 23 23 23 23 23 23 23 23 23 23 24 24 23 24 24 24 24 23 24 23 24 23 23 23 22 22 22 22 21 21 20 20 19 19 19 17
23 22 23 21 22 22 23 22 22 22 23 23 23 23 24 23 23 24 24 24 24 24 24 24 24 24 23 23 23 23 22 21 20 20 19 19 18 17 17 17 16 16 15 15
24 23 23 22 22 22 22 22 22 22 22 22 22 23 23 23 23 24 24 25 24 24 24 23 23 23 23 22 21 21 20 19 18 17 16 15 15 15 15 14 14 13 13 13
23 23 22 22 22 21 21 21 21 22 22 22 22 22 22 23 23 23 24 24 24 23 23 22 22 22 22 21 19 18 17 16 16 15 14 14 14 14 13 13 12 12 12 12
22 22 22 22 22 22 22 22 21 21 22 22 22 22 22 22 22 22 22 22 22 22 21 21 20 20 20 18 17 16 15 14 14 14 14 14 13 13 12 11 10 10 10 11
21 21 22 22 22 22 22 22 22 22 22 22 22 22 23 22 22 21 21 20 20 19 19 19 19 19 18 17 16 15 15 14 13 13 13 12 11 11 10 10 10 10 10 10
21 21 21 21 21 22 21 21 21 21 21 21 22 22 22 21 21 21 20 20 19 18 18 17 17 17 16 15 15 14 14 13 12 12 11 11 10 10 10 9 9 9 9 9
21 21 21 21 21 20 20 20 20 20 20 20 21 21 20 20 20 21 21 20 19 18 17 16 17 16 15 14 13 13 12 11 11 11 11 10 10 10 10 9 9 8 8 8
21 20 19 20 20 20 20 20 20 20 20 20 20 19 20 20 20 20 20 20 19 17 16 16 15 14 13 12 12 11 11 11 11 11 10 10 10 9 9 9 8 8 8 7
20 19 19 19 20 19 20 20 20 20 20 20 20 20 20 20 20 20 19 19 18 17 16 16 15 13 13 11 10 10 10 10 10 10 10 10 9 9 8 8 8 8 8 8
19 18 19 19 19 19 19 20 20 20 20 21 20 20 20 20 19 18 18 18 17 16 16 15 14 13 12 11 10 10 9 9 9 9 9 9 9 9 9 9 8 8 8 8
17 17 18 18 18 18 18 19 19 20 20 21 20 20 19 19 18 17 17 17 16 15 14 13 12 12 11 11 10 10 9 9 9 9 9 10 10 9 9 8 8 7 8 7
16 16 17 17 17 17 17 18 18 19 20 20 19 18 17 17 17 17 16 16 14 13 13 12 12 11 11 11 11 10 10 9 9 9 9 10 10 9 9 8 8 7 7 6
16 15 15 16 16 16 16 17 18 18 19 18 17 16 15 15 15 15 14 14 13 12 12 12 12 12 11 11 10 10 10 9 9 9 9 9 9 9 8 8 7 6 6 5
15 14 15 16 16 16 17 17 18 18 17 17 16 15 15 14 14 14 13 12 12 12 12 13 12 11 11 11 10 10 9 9 9 8 8 8 8 8 7 7 6 6 5 5
15 14 15 16 16 16 16 16 17 17 16 15 14 14 14 14 14 13 13 12 11 11 11 11 11 11 11 10 10 9 9 9 9 8 7 7 8 8 7 7 7 7 6 5
15 16 16 16 15 15 15 16 15 15 15 14 14 13 13 13 12 12 11 10 10 9 9 10 10 11 10 10 9 8 8 7 8 8 7 7 8 8 8 7 7 7 6 6
Wind_Direction
286 286 284 281 279 275 275 277 278 279 277 275 275 276 279 281 281 279 277 275 274 272 270 269 268 267 267 267 269 270 272 273 272 271 271 270 271 272 273 274 273 271 270 270
283 285 284 282 282 280 278 278 278 279 279 279 278 279 280 280 280 279 279 277 276 273 272 270 269 268 268 269 271 272 273 274 274 272 272 272 272 273 273 273 273 273 273 270
284 285 284 284 285 284 282 280 279 280 281 279 279 279 280 281 281 280 281 281 279 277 274 272 271 271 270 271 272 273 274 274 273 273 273 273 273 273 273 274 275 275 274 270
287 287 285 289 288 284 282 282 281 279 280 280 280 281 282 281 281 282 283 283 282 280 278 276 274 273 273 273 273 275 276 275 273 274 274 274 274 275 275 275 276 275 272 271
289 289 290 290 289 287 284 282 283 281 279 279 281 282 284 284 283 283 283 284 283 282 281 280 278 277 277 277 277 278 277 276 276 275 275 276 276 276 276 277 277 276 273 272
289 289 292 295 291 288 286 285 285 285 283 281 281 282 284 284 284 283 284 285 285 284 283 282 280 280 280 280 281 281 281 279 278 277 275 274 275 275 276 277 276 275 273 273
291 290 291 295 294 291 288 289 286 286 285 283 283 284 284 283 282 282 282 284 285 285 285 284 283 283 283 282 282 283 284 283 281 279 277 275 274 276 276 276 276 274 274 274
291 290 293 295 292 292 292 288 286 285 285 285 285 284 284 283 282 281 282 282 283 283 285 286 287 287 285 284 284 285 285 285 283 280 278 276 275 276 277 278 278 276 275 276
291 292 293 290 291 291 290 290 288 286 285 285 284 285 285 284 283 283 282 283 282 282 284 287 289 288 286 285 286 286 286 286 283 281 279 278 276 275 276 278 278 277 277 275
289 292 292 289 289 291 291 291 290 289 289 286 284 285 285 284 283 283 283 284 284 284 285 287 289 289 288 287 287 287 287 287 285 282 278 276 276 275 276 276 276 276 276 274
288 290 290 289 289 289 289 289 290 290 290 289 285 283 285 285 283 285 285 284 284 284 284 287 290 290 290 288 287 288 288 286 284 282 280 277 276 276 275 275 275 276 276 270
287 288 288 287 287 288 289 290 292 292 292 290 286 284 284 284 284 284 285 284 284 284 285 287 288 290 290 290 289 287 286 284 284 282 280 277 275 273 273 278 277 276 275 271
285 286 286 286 286 287 288 289 290 293 293 291 287 285 284 282 282 283 285 285 285 286 286 286 286 288 289 291 291 288 286 283 283 280 277 273 273 273 274 279 280 274 272 274
283 283 285 286 286 285 286 287 289 292 294 293 289 287 284 282 283 284 285 284 285 286 286 286 287 288 289 290 290 288 286 283 280 277 274 272 271 273 274 276 273 268 271 273
284 284 285 285 285 284 284 285 288 290 292 293 292 290 288 285 284 284 284 285 286 286 286 285 286 288 289 290 287 284 282 282 279 276 273 271 271 270 269 271 272 272 272 274
284 284 285 285 285 283 284 285 287 288 290 292 293 291 289 287 286 285 285 286 287 287 285 284 284 285 285 286 284 281 278 275 275 274 271 267 265 266 268 268 269 272 274 276
284 284 284 284 284 284 285 287 288 289 291 292 292 290 288 287 285 286 286 287 288 287 285 284 284 283 282 282 281 280 277 271 270 267 263 262 262 264 264 263 266 271 274 275
284 284 282 282 283 284 284 286 290 291 292 292 292 290 289 287 286 287 288 288 288 286 283 283 284 282 281 281 280 279 273 266 266 263 261 260 261 263 261 261 262 263 265 270
285 283 281 282 282 283 285 288 290 291 292 293 292 290 289 288 287 287 287 288 287 284 282 281 279 277 277 278 277 276 270 263 264 262 259 257 259 259 258 258 259 259 261 268
287 284 282 281 282 284 286 287 289 290 292 293 292 290 290 290 289 288 287 286 285 282 280 278 275 271 271 272 273 272 267 260 259 256 253 251 254 257 258 260 260 262 263 268
285 283 283 283 284 287 289 289 289 291 293 293 291 290 290 289 288 286 286 286 284 280 275 274 270 266 264 264 266 267 263 257 253 251 250 250 252 254 256 259 261 264 264 265
286 287 288 287 286 288 291 291 291 291 293 292 291 290 289 287 285 284 285 285 285 279 271 266 263 261 259 261 263 263 260 257 250 249 253 254 253 253 255 257 259 262 261 261
288 290 290 288 287 289 293 296 296 294 295 294 292 290 288 286 285 286 285 283 281 275 265 260 256 256 256 258 259 257 257 255 251 248 252 254 252 252 251 251 253 253 253 250
286 288 290 290 289 290 295 298 300 298 296 295 293 291 289 287 287 288 286 281 276 270 263 256 252 252 251 253 252 252 254 254 252 249 249 247 243 242 241 241 243 239 233 226
284 285 288 291 293 293 296 299 300 300 296 294 293 291 290 288 287 286 284 280 275 267 259 253 248 245 245 246 247 250 253 252 250 246 243 237 231 228 227 223 219 210 203 201
284 287 289 292 294 295 296 298 300 300 298 294 291 290 291 291 289 285 281 279 273 266 258 250 243 238 238 239 242 246 249 247 245 239 233 226 217 210 203 200 199 194 193 191
286 288 288 289 291 295 298 300 301 300 298 295 292 290 290 290 289 284 280 279 275 267 257 245 236 232 231 230 232 236 237 240 238 229 221 212 202 196 193 194 192 191 193 192
Height
5594 5593 5591 5591 5590 5589 5588 5587 5586 5586 5585 5585 5582 5580 5579 5577 5575 5573 5572 5571 5569 5568 5567 5567 5566 5565 5565 5564 5564 5563 5562 5561 5560 5559 5558 5558 5557 5557 5556 5555 5554 5553 5552 5551
5588 5587 5585 5584 5584 5582 5581 5580 5579 5578 5578 5577 5574 5572 5571 5569 5567 5566 5564 5563 5562 5560 5559 5559 5558 5557 5557 5556 5555 5554 5553 5552 5551 5550 5550 5549 5549 5548 5547 5546 5544 5543 5542 5541
5582 5581 5578 5578 5578 5576 5575 5573 5572 5570 5571 5569 5567 5565 5563 5562 5560 5558 5557 5555 5554 5553 5552 5551 5550 5549 5549 5548 5547 5546 5545 5544 5543 5542 5541 5540 5539 5538 5537 5536 5535 5533 5532 5531
5574 5574 5572 5575 5571 5569 5567 5567 5565 5563 5563 5561 5560 5558 5556 5555 5553 5551 5550 5548 5547 5545 5544 5543 5542 5541 5540 5539 5538 5537 5536 5535 5533 5532 5531 5530 5529 5529 5528 5526 5525 5524 5523 5522
5568 5566 5565 5567 5564 5562 5560 5560 5558 5556 5555 5554 5552 5551 5550 5548 5546 5544 5543 5542 5540 5538 5537 5535 5534 5533 5532 5531 5529 5528 5527 5525 5524 5522 5522 5521 5520 5519 5518 5517 5516 5514 5513 5512
5561 5559 5558 5560 5557 5554 5553 5552 5552 5549 5548 5546 5545 5545 5544 5541 5539 5538 5536 5534 5533 5531 5530 5528 5526 5525 5524 5522 5521 5519 5517 5516 5514 5513 5512 5511 5510 5509 5508 5507 5506 5505 5504 5503
5554 5552 5551 5552 5550 5548 5547 5547 5544 5542 5540 5539 5538 5537 5536 5534 5532 5530 5529 5527 5525 5524 5522 5520 5519 5517 5515 5514 5512 5511 5509 5507 5505 5503 5502 5501 5501 5500 5499 5498 5497 5496 5495 5494
5548 5546 5548 5545 5542 5541 5540 5538 5536 5535 5533 5532 5531 5530 5528 5526 5525 5523 5521 5520 5518 5517 5515 5513 5511 5509 5508 5506 5504 5502 5500 5498 5497 5495 5494 5493 5492 5491 5490 5489 5488 5487 5486 5486
5542 5542 5540 5537 5535 5534 5532 5531 5529 5528 5527 5525 5524 5523 5521 5519 5518 5516 5514 5512 5511 5509 5508 5506 5504 5502 5500 5498 5496 5494 5492 5490 5488 5487 5485 5484 5484 5483 5482 5481 5480 5479 5479 5478
5535 5535 5533 5530 5528 5527 5525 5524 5522 5521 5519 5518 5517 5515 5514 5512 5510 5509 5507 5505 5504 5502 5501 5499 5497 5495 5493 5491 5489 5487 5485 5483 5481 5479 5478 5477 5476 5476 5475 5474 5473 5473 5472 5472
5527 5527 5525 5524 5522 5520 5518 5517 5515 5514 5512 5510 5509 5508 5506 5505 5503 5501 5500 5498 5496 5495 5493 5492 5490 5488 5485 5483 5481 5479 5477 5475 5474 5472 5471 5470 5469 5469 5468 5468 5467 5467 5467 5466
5521 5520 5518 5517 5515 5513 5511 5510 5508 5507 5505 5503 5501 5500 5498 5497 5496 5494 5492 5491 5489 5488 5486 5484 5482 5480 5478 5476 5474 5472 5471 5469 5467 5466 5465 5464 5463 5463 5463 5463 5462 5462 5461 5462
5513 5512 5510 5510 5508 5506 5505 5503 5502 5500 5498 5496 5494 5492 5491 5490 5488 5487 5485 5484 5482 5480 5478 5477 5475 5473 5472 5470 5468 5466 5464 5463 5461 5460 5460 5459 5459 5459 5459 5458 5457 5457 5457 5457
5505 5504 5503 5502 5501 5500 5498 5497 5495 5493 5491 5489 5487 5485 5484 5482 5481 5479 5478 5476 5475 5473 5471 5470 5468 5466 5465 5463 5461 5460 5458 5457 5456 5456 5455 5455 5455 5455 5455 5454 5454 5454 5454 5453
5498 5497 5496 5495 5494 5493 5492 5490 5489 5487 5485 5483 5480 5479 5477 5475 5474 5472 5471 5469 5468 5466 5464 5463 5461 5460 5458 5457 5455 5454 5453 5452 5452 5451 5451 5451 5451 5451 5451 5451 5450 5450 5450 5450
5492 5490 5489 5488 5487 5486 5485 5484 5482 5480 5478 5476 5474 5472 5470 5468 5467 5466 5464 5463 5461 5459 5458 5457 5455 5454 5453 5451 5450 5449 5448 5448 5447 5447 5447 5447 5447 5447 5447 5447 5447 5447 5447 5446
5484 5483 5483 5482 5481 5479 5478 5477 5475 5473 5472 5470 5468 5466 5464 5462 5461 5459 5458 5456 5455 5453 5452 5451 5449 5448 5447 5446 5445 5444 5443 5443 5443 5443 5443 5443 5443 5443 5443 5443 5443 5443 5443 5443
5477 5477 5476 5475 5474 5473 5471 5470 5469 5467 5465 5463 5461 5459 5458 5456 5455 5453 5452 5450 5449 5447 5446 5445 5444 5443 5442 5441 5440 5439 5439 5439 5439 5439 5439 5439 5440 5440 5440 5440 5440 5440 5440 5440
5470 5470 5469 5468 5467 5466 5465 5464 5462 5461 5459 5457 5455 5453 5451 5450 5449 5447 5446 5444 5443 5441 5440 5439 5439 5438 5437 5436 5436 5435 5435 5435 5435 5435 5435 5436 5436 5437 5437 5437 5437 5437 5437 5437
5464 5463 5462 5461 5460 5459 5458 5457 5455 5454 5452 5450 5448 5447 5445 5444 5442 5441 5439 5438 5437 5436 5435 5434 5433 5433 5433 5432 5432 5432 5431 5431 5432 5432 5432 5433 5433 5433 5433 5433 5433 5433 5433 5434
5457 5457 5456 5455 5454 5453 5451 5450 5449 5447 5445 5444 5442 5440 5439 5437 5436 5435 5434 5433 5431 5430 5429 5429 5429 5428 5428 5428 5428 5428 5428 5428 5428 5429 5429 5430 5430 5430 5430 5430 5430 5430 5430 5431
5451 5451 5449 5448 5447 5446 5445 5443 5442 5440 5439 5437 5435 5434 5432 5431 5430 5429 5428 5427 5426 5425 5424 5424 5424 5424 5424 5425 5425 5425 5425 5425 5425 5426 5426 5426 5427 5427 5427 5427 5427 5427 5427 5427
5445 5444 5443 5442 5441 5440 5439 5437 5436 5434 5432 5431 5429 5428 5426 5425 5424 5423 5422 5421 5420 5419 5419 5419 5420 5420 5420 5421 5421 5422 5422 5422 5422 5423 5423 5423 5423 5424 5424 5424 5424 5425 5425 5425
5439 5438 5437 5436 5436 5435 5433 5432 5430 5428 5427 5425 5423 5422 5421 5420 5419 5418 5417 5416 5415 5415 5415 5415 5415 5416 5416 5417 5418 5418 5418 5419 5419 5419 5419 5420 5420 5421 5421 5422 5422 5422 5423 5423
5433 5432 5432 5431 5430 5429 5428 5426 5425 5423 5421 5420 5418 5417 5416 5415 5414 5413 5412 5411 5410 5410 5410 5410 5411 5412 5412 5413 5414 5414 5415 5415 5416 5416 5416 5417 5417 5418 5419 5419 5420 5421 5421 5422
5427 5427 5426 5425 5424 5423 5422 5421 5419 5418 5416 5415 5413 5412 5411 5410 5409 5407 5406 5406 5405 5405 5405 5406 5406 5408 5409 5409 5410 5411 5412 5412 5413 5413 5414 5414 5415 5416 5417 5418 5419 5420 5421 5421
5422 5421 5420 5420 5419 5418 5417 5416 5414 5413 5411 5410 5409 5408 5406 5405 5404 5403 5402 5401 5401 5401 5401 5401 5402 5404 5405 5406 5407 5408 5409 5410 5410 5411 5412 5412 5413 5414 5416 5417 5418 5419 5420 5421